COSMOS 886 DEB

Satellite information

Favourite Embed

Satellite Type and Status

DEBRISIN ORBIT

Key statistics

Satellite COSMOS 886 DEB at a glance.

Uptime

17725

Days in orbit

Revolutions

≈ 14.5

Per day

Orbit

LEO

Low Earth Orbit

Inclination

65.6

Latest

Satellite identification and parameters

Extended collection of information and parameters for COSMOS 886 DEB.

Object identification

Identified? True

Debris? True

Object name: COSMOS 886 DEB

International designator: 1976-126CG

Object number (NORAD): 20673

Object ID (CCSDS): 20673

Country: COMMONWEALTH OF INDEPENDENT STATES (CIS)

Current information (Y/N): Y

RCS size: SMALL

Orbital parameters

Period: 98.978 minutes

Inclination: 65.5663 deg

SMA: 7087.937 km

Apoapsis: 916.228 km

Periapsis: 503.376 km

RAAN: 122.0197 deg

Eccentricy: 0.0291235

Argument of periapsis: 34.7083 deg

Mean anomaly: 327.2641 deg

Mean motion: 14.54865988 rev/day

Mean motion (dot): 0.00016801 rev/day2

B* drag term: 0.0022113 1/REarth

Two-line elements (TLE)

Creation date: July 8, 2025, 2:27 a.m.

Reference frame: TEME

Reference center: EARTH

Epoch: July 7, 2025, 7:51 p.m. UTC

TLE line 0: 0 COSMOS 886 DEB

TLE line 1: 1 20673U 76126CG 25188.82769988 .00016801 00000-0 22113-2 0 9998

TLE line 2: 2 20673 65.5663 122.0197 0291235 34.7083 327.2641 14.54865988677003

Live tracking on map

Real-time ground track for satellite COSMOS 886 DEB.

In-orbit conjunctions

A list of the most updated potential collisions computed for object COSMOS 886 DEB.

Target Orbit TCA Probability of collision Miss distance Type
CZ-6A DEB SSO 2024-12-16 12:33:03 0.0001197312 103.0 (m) DEBRIS
FENGYUN 1C DEB SSO 2024-09-27 05:42:04 0.0002252473 85.0 (m) DEBRIS

Associated space launch

Second generation ASAT satellite

COSMOS 886 DEB was lifted into orbit during the mission ‘Tsiklon-2 | IS-A 4’, on board a Tsiklon-2 space rocket.

The launch took place on Dec. 27, 1976, 12:05 p.m. from 90.

For more information about the launch, click the button.

Launch to space Tsiklon-2 | IS-A 4
Tsiklon-2 | IS-A 4

Agency: N/A

Status: Launch Successful

Launch date: Dec. 27, 1976, 12:05 p.m. UTC

Rocket: Tsiklon-2

Launch pad: 90

Location: Baikonur Cosmodrome, Republic of Kazakhstan

...

Latest news about this satellite

There are no fresh news available about this satellite. Check back as we update our databases every day.


Newsletter sign-up

Weekly statistics, charts and insights to help you stay on top of the space industry.